owner,sensor,date,latitude,longitude,vertical_datum,wind_speed,wind_to_direction,wind_speed_of_gust,qcFlag 
LOOP,urn:ioos:station:wmo:lopl1:1,2011-11-01T00:08:00Z,28.8850,-90.0250,10.0,5.4,20.0,6.6,'11111222,11111222,11111222' 
LOOP,urn:ioos:station:wmo:lopl1:1,2011-11-01T00:23:00Z,28.8850,-90.0250,10.0,4.7,26.0,6.3,'11111222,11111222,11111222' 
LOOP,urn:ioos:station:wmo:lopl1:1,2011-11-01T00:38:00Z,28.8850,-90.0250,10.0,4.7,13.0,5.9,'11111222,11111222,11111222' 
LOOP,urn:ioos:station:wmo:lopl1:1,2011-11-01T00:53:00Z,28.8850,-90.0250,10.0,5.1,28.0,6.8,'11111222,11111222,11111222' 
LOOP,urn:ioos:station:wmo:lopl1:1,2011-11-01T01:08:00Z,28.8850,-90.0250,10.0,6.0,18.0,7.8,'11111222,11111222,11111222' 
LOOP,urn:ioos:station:wmo:lopl1:1,2011-11-01T01:23:00Z,28.8850,-90.0250,10.0,5.4,21.0,6.8,'11111222,11111222,11111222' 
LOOP,urn:ioos:station:wmo:lopl1:1,2011-11-01T01:38:00Z,28.8850,-90.0250,10.0,6.2,17.0,7.5,'11111222,11111222,11111222' 
LOOP,urn:ioos:station:wmo:lopl1:1,2011-11-01T01:53:00Z,28.8850,-90.0250,10.0,6.0,24.0,8.2,'11111222,11111222,11111222' 
LOOP,urn:ioos:station:wmo:lopl1:1,2011-11-01T02:08:00Z,28.8850,-90.0250,10.0,5.1,13.0,6.8,'11111222,11111222,11111222' 
LOOP,urn:ioos:station:wmo:lopl1:1,2011-11-01T02:23:00Z,28.8850,-90.0250,10.0,4.7,22.0,6.5,'11111222,11111222,11111222' 
LOOP,urn:ioos:station:wmo:lopl1:1,2011-11-01T02:38:00Z,28.8850,-90.0250,10.0,5.0,15.0,6.4,'11111222,11111222,11111222' 
LOOP,urn:ioos:station:wmo:lopl1:1,2011-11-01T02:53:00Z,28.8850,-90.0250,10.0,5.0,25.0,6.9,'11111222,11111222,11111222' 
LOOP,urn:ioos:station:wmo:lopl1:1,2011-11-01T03:08:00Z,28.8850,-90.0250,10.0,5.3,32.0,7.3,'11111222,11111222,11111222' 
LOOP,urn:ioos:station:wmo:lopl1:1,2011-11-01T03:23:00Z,28.8850,-90.0250,10.0,5.0,43.0,6.8,'11111222,11111222,11111222' 
LOOP,urn:ioos:station:wmo:lopl1:1,2011-11-01T03:38:00Z,28.8850,-90.0250,10.0,5.4,37.0,7.3,'11111222,11111222,11111222' 
LOOP,urn:ioos:station:wmo:lopl1:1,2011-11-01T03:53:00Z,28.8850,-90.0250,10.0,4.9,28.0,6.8,'11111222,11111222,11111222' 
LOOP,urn:ioos:station:wmo:lopl1:1,2011-11-01T04:13:00Z,28.8850,-90.0250,10.0,5.0,54.0,6.8,'11111222,11111222,11111222' 
LOOP,urn:ioos:station:wmo:lopl1:1,2011-11-01T04:28:00Z,28.8850,-90.0250,10.0,5.6,35.0,7.4,'11111222,11111222,11111222' 
LOOP,urn:ioos:station:wmo:lopl1:1,2011-11-01T04:43:00Z,28.8850,-90.0250,10.0,5.6,37.0,7.3,'11111222,11111222,11111222' 
LOOP,urn:ioos:station:wmo:lopl1:1,2011-11-01T04:58:00Z,28.8850,-90.0250,10.0,5.7,38.0,8.1,'11111222,11111222,11111222' 
LOOP,urn:ioos:station:wmo:lopl1:1,2011-11-01T05:13:00Z,28.8850,-90.0250,10.0,6.2,36.0,8.6,'11111222,11111222,11111222' 
LOOP,urn:ioos:station:wmo:lopl1:1,2011-11-01T05:28:00Z,28.8850,-90.0250,10.0,6.2,59.0,8.3,'11111222,11111222,11111222' 
LOOP,urn:ioos:station:wmo:lopl1:1,2011-11-01T05:43:00Z,28.8850,-90.0250,10.0,6.7,29.0,9.0,'11111222,11111222,11111222' 
LOOP,urn:ioos:station:wmo:lopl1:1,2011-11-01T05:58:00Z,28.8850,-90.0250,10.0,7.3,33.0,9.5,'11111222,11111222,11111222' 
LOOP,urn:ioos:station:wmo:lopl1:1,2011-11-01T06:13:00Z,28.8850,-90.0250,10.0,6.6,36.0,9.3,'11111222,11111222,11111222' 
LOOP,urn:ioos:station:wmo:lopl1:1,2011-11-01T06:28:00Z,28.8850,-90.0250,10.0,6.7,44.0,8.8,'11111222,11111222,11111222' 
LOOP,urn:ioos:station:wmo:lopl1:1,2011-11-01T06:43:00Z,28.8850,-90.0250,10.0,6.3,38.0,8.8,'11111222,11111222,11111222' 
LOOP,urn:ioos:station:wmo:lopl1:1,2011-11-01T06:58:00Z,28.8850,-90.0250,10.0,6.4,51.0,9.0,'11111222,11111222,11111222' 
LOOP,urn:ioos:station:wmo:lopl1:1,2011-11-01T07:13:00Z,28.8850,-90.0250,10.0,6.5,40.0,9.0,'11111222,11111222,11111222' 
LOOP,urn:ioos:station:wmo:lopl1:1,2011-11-01T07:28:00Z,28.8850,-90.0250,10.0,6.6,51.0,9.1,'11111222,11111222,11111222' 
LOOP,urn:ioos:station:wmo:lopl1:1,2011-11-01T07:43:00Z,28.8850,-90.0250,10.0,6.8,44.0,10.2,'11111222,11111222,11111222' 
LOOP,urn:ioos:station:wmo:lopl1:1,2011-11-01T07:58:00Z,28.8850,-90.0250,10.0,7.0,57.0,9.8,'11111222,11111222,11111222' 
LOOP,urn:ioos:station:wmo:lopl1:1,2011-11-01T08:13:00Z,28.8850,-90.0250,10.0,6.4,40.0,8.7,'11111222,11111222,11111222' 
LOOP,urn:ioos:station:wmo:lopl1:1,2011-11-01T08:28:00Z,28.8850,-90.0250,10.0,6.9,34.0,10.4,'11111222,11111222,11111222' 
LOOP,urn:ioos:station:wmo:lopl1:1,2011-11-01T08:43:00Z,28.8850,-90.0250,10.0,6.4,42.0,9.0,'11111222,11111222,11111222' 
LOOP,urn:ioos:station:wmo:lopl1:1,2011-11-01T08:58:00Z,28.8850,-90.0250,10.0,6.5,35.0,8.8,'11111222,11111222,11111222' 
LOOP,urn:ioos:station:wmo:lopl1:1,2011-11-01T09:13:00Z,28.8850,-90.0250,10.0,7.0,31.0,9.5,'11111222,11111222,11111222' 
LOOP,urn:ioos:station:wmo:lopl1:1,2011-11-01T09:28:00Z,28.8850,-90.0250,10.0,7.2,42.0,9.6,'11111222,11111222,11111222' 
LOOP,urn:ioos:station:wmo:lopl1:1,2011-11-01T09:43:00Z,28.8850,-90.0250,10.0,6.7,35.0,9.4,'11111222,11111222,11111222' 
LOOP,urn:ioos:station:wmo:lopl1:1,2011-11-01T09:58:00Z,28.8850,-90.0250,10.0,7.2,28.0,9.8,'11111222,11111222,11111222' 
LOOP,urn:ioos:station:wmo:lopl1:1,2011-11-01T10:13:00Z,28.8850,-90.0250,10.0,7.5,34.0,9.7,'11111222,11111222,11111222' 
LOOP,urn:ioos:station:wmo:lopl1:1,2011-11-01T10:28:00Z,28.8850,-90.0250,10.0,6.9,56.0,9.6,'11111222,11111222,11111222' 
LOOP,urn:ioos:station:wmo:lopl1:1,2011-11-01T10:43:00Z,28.8850,-90.0250,10.0,7.1,45.0,10.0,'11111222,11111222,11111222' 
LOOP,urn:ioos:station:wmo:lopl1:1,2011-11-01T10:58:00Z,28.8850,-90.0250,10.0,7.3,33.0,10.6,'11111222,11111222,11111222' 
LOOP,urn:ioos:station:wmo:lopl1:1,2011-11-01T11:13:00Z,28.8850,-90.0250,10.0,7.3,49.0,10.7,'11111222,11111222,11111222' 
LOOP,urn:ioos:station:wmo:lopl1:1,2011-11-01T11:28:00Z,28.8850,-90.0250,10.0,7.9,34.0,10.5,'11111222,11111222,11111222' 
LOOP,urn:ioos:station:wmo:lopl1:1,2011-11-01T11:43:00Z,28.8850,-90.0250,10.0,7.4,44.0,9.6,'11111222,11111222,11111222' 
LOOP,urn:ioos:station:wmo:lopl1:1,2011-11-01T11:58:00Z,28.8850,-90.0250,10.0,7.1,32.0,9.9,'11111222,11111222,11111222' 
LOOP,urn:ioos:station:wmo:lopl1:1,2011-11-01T12:13:00Z,28.8850,-90.0250,10.0,7.7,49.0,10.7,'11111222,11111222,11111222' 
LOOP,urn:ioos:station:wmo:lopl1:1,2011-11-01T12:28:00Z,28.8850,-90.0250,10.0,7.4,64.0,11.0,'11111222,11111222,11111222' 
LOOP,urn:ioos:station:wmo:lopl1:1,2011-11-01T12:43:00Z,28.8850,-90.0250,10.0,7.5,50.0,10.2,'11111222,11111222,11111222' 
LOOP,urn:ioos:station:wmo:lopl1:1,2011-11-01T12:58:00Z,28.8850,-90.0250,10.0,7.5,59.0,10.4,'11111222,11111222,11111222' 
LOOP,urn:ioos:station:wmo:lopl1:1,2011-11-01T13:13:00Z,28.8850,-90.0250,10.0,8.1,63.0,11.3,'11111222,11111222,11111222' 
LOOP,urn:ioos:station:wmo:lopl1:1,2011-11-01T13:28:00Z,28.8850,-90.0250,10.0,8.0,53.0,10.6,'11111222,11111222,11111222' 
LOOP,urn:ioos:station:wmo:lopl1:1,2011-11-01T13:48:00Z,28.8850,-90.0250,10.0,8.0,58.0,10.2,'11111222,11111222,11111222' 
LOOP,urn:ioos:station:wmo:lopl1:1,2011-11-01T14:03:00Z,28.8850,-90.0250,10.0,8.2,65.0,11.0,'11111222,11111222,11111222' 
LOOP,urn:ioos:station:wmo:lopl1:1,2011-11-01T14:18:00Z,28.8850,-90.0250,10.0,8.8,66.0,10.8,'11111222,11111222,11111222' 
LOOP,urn:ioos:station:wmo:lopl1:1,2011-11-01T14:33:00Z,28.8850,-90.0250,10.0,8.4,60.0,10.5,'11111222,11111222,11111222' 
LOOP,urn:ioos:station:wmo:lopl1:1,2011-11-01T14:48:00Z,28.8850,-90.0250,10.0,9.5,69.0,11.0,'11111222,11111222,11111222' 
LOOP,urn:ioos:station:wmo:lopl1:1,2011-11-01T15:03:00Z,28.8850,-90.0250,10.0,8.4,68.0,10.7,'11111222,11111222,11111222' 
LOOP,urn:ioos:station:wmo:lopl1:1,2011-11-01T15:18:00Z,28.8850,-90.0250,10.0,8.3,61.0,10.5,'11111222,11111222,11111222' 
LOOP,urn:ioos:station:wmo:lopl1:1,2011-11-01T15:33:00Z,28.8850,-90.0250,10.0,8.7,65.0,10.8,'11111222,11111222,11111222' 
LOOP,urn:ioos:station:wmo:lopl1:1,2011-11-01T15:48:00Z,28.8850,-90.0250,10.0,8.4,59.0,10.0,'11111222,11111222,11111222' 
LOOP,urn:ioos:station:wmo:lopl1:1,2011-11-01T16:03:00Z,28.8850,-90.0250,10.0,8.3,65.0,10.6,'11111222,11111222,11111222' 
LOOP,urn:ioos:station:wmo:lopl1:1,2011-11-01T16:18:00Z,28.8850,-90.0250,10.0,8.8,65.0,10.2,'11111222,11111222,11111222' 
LOOP,urn:ioos:station:wmo:lopl1:1,2011-11-01T16:33:00Z,28.8850,-90.0250,10.0,8.3,67.0,9.9,'11111222,11111222,11111222' 
LOOP,urn:ioos:station:wmo:lopl1:1,2011-11-01T16:48:00Z,28.8850,-90.0250,10.0,7.6,57.0,9.3,'11111222,11111222,11111222' 
LOOP,urn:ioos:station:wmo:lopl1:1,2011-11-01T17:03:00Z,28.8850,-90.0250,10.0,7.4,64.0,9.1,'11111222,11111222,11111222' 
LOOP,urn:ioos:station:wmo:lopl1:1,2011-11-01T17:18:00Z,28.8850,-90.0250,10.0,7.5,65.0,10.1,'11111222,11111222,11111222' 
LOOP,urn:ioos:station:wmo:lopl1:1,2011-11-01T17:33:00Z,28.8850,-90.0250,10.0,7.5,64.0,9.5,'11111222,11111222,11111222' 
LOOP,urn:ioos:station:wmo:lopl1:1,2011-11-01T17:48:00Z,28.8850,-90.0250,10.0,6.2,60.0,8.3,'11111222,11111222,11111222' 
LOOP,urn:ioos:station:wmo:lopl1:1,2011-11-01T18:03:00Z,28.8850,-90.0250,10.0,6.3,62.0,8.0,'11111222,11111222,11111222' 
LOOP,urn:ioos:station:wmo:lopl1:1,2011-11-01T18:18:00Z,28.8850,-90.0250,10.0,5.7,51.0,7.4,'11111222,11111222,11111222' 
LOOP,urn:ioos:station:wmo:lopl1:1,2011-11-01T18:33:00Z,28.8850,-90.0250,10.0,6.4,64.0,7.7,'11111222,11111222,11111222' 
LOOP,urn:ioos:station:wmo:lopl1:1,2011-11-01T18:48:00Z,28.8850,-90.0250,10.0,6.0,68.0,7.5,'11111222,11111222,11111222' 
LOOP,urn:ioos:station:wmo:lopl1:1,2011-11-01T19:03:00Z,28.8850,-90.0250,10.0,6.1,75.0,7.7,'11111222,11111222,11111222' 
LOOP,urn:ioos:station:wmo:lopl1:1,2011-11-01T19:18:00Z,28.8850,-90.0250,10.0,6.3,80.0,7.7,'11111222,11111222,11111222' 
LOOP,urn:ioos:station:wmo:lopl1:1,2011-11-01T19:33:00Z,28.8850,-90.0250,10.0,6.6,72.0,8.0,'11111222,11111222,11111222' 
LOOP,urn:ioos:station:wmo:lopl1:1,2011-11-01T19:48:00Z,28.8850,-90.0250,10.0,7.0,73.0,8.9,'11111222,11111222,11111222' 
LOOP,urn:ioos:station:wmo:lopl1:1,2011-11-01T20:03:00Z,28.8850,-90.0250,10.0,7.8,68.0,9.3,'11111222,11111222,11111222' 
LOOP,urn:ioos:station:wmo:lopl1:1,2011-11-01T20:18:00Z,28.8850,-90.0250,10.0,8.4,68.0,9.7,'11111222,11111222,11111222' 
LOOP,urn:ioos:station:wmo:lopl1:1,2011-11-01T20:33:00Z,28.8850,-90.0250,10.0,8.4,77.0,10.3,'11111222,11111222,11111222' 
LOOP,urn:ioos:station:wmo:lopl1:1,2011-11-01T20:48:00Z,28.8850,-90.0250,10.0,8.3,73.0,9.9,'11111222,11111222,11111222' 
LOOP,urn:ioos:station:wmo:lopl1:1,2011-11-01T21:03:00Z,28.8850,-90.0250,10.0,8.7,65.0,9.9,'11111222,11111222,11111222' 
LOOP,urn:ioos:station:wmo:lopl1:1,2011-11-01T21:18:00Z,28.8850,-90.0250,10.0,9.1,70.0,10.8,'11111222,11111222,11111222' 
LOOP,urn:ioos:station:wmo:lopl1:1,2011-11-01T21:33:00Z,28.8850,-90.0250,10.0,9.1,72.0,10.6,'11111222,11111222,11111222' 
LOOP,urn:ioos:station:wmo:lopl1:1,2011-11-01T21:48:00Z,28.8850,-90.0250,10.0,9.6,83.0,11.2,'11111222,11111222,11111222' 
LOOP,urn:ioos:station:wmo:lopl1:1,2011-11-01T22:03:00Z,28.8850,-90.0250,10.0,8.7,78.0,10.6,'11111222,11111222,11111222' 
LOOP,urn:ioos:station:wmo:lopl1:1,2011-11-01T22:18:00Z,28.8850,-90.0250,10.0,10.0,66.0,12.1,'11111222,11111222,11111222' 
LOOP,urn:ioos:station:wmo:lopl1:1,2011-11-01T22:33:00Z,28.8850,-90.0250,10.0,9.8,73.0,11.2,'11111222,11111222,11111222' 
LOOP,urn:ioos:station:wmo:lopl1:1,2011-11-01T22:48:00Z,28.8850,-90.0250,10.0,10.5,85.0,11.9,'11111222,11111222,11111222' 
LOOP,urn:ioos:station:wmo:lopl1:1,2011-11-01T23:03:00Z,28.8850,-90.0250,10.0,10.4,88.0,12.5,'11111222,11111222,11111222' 
LOOP,urn:ioos:station:wmo:lopl1:1,2011-11-01T23:18:00Z,28.8850,-90.0250,10.0,10.0,75.0,11.7,'11111222,11111222,11111222' 
LOOP,urn:ioos:station:wmo:lopl1:1,2011-11-01T23:33:00Z,28.8850,-90.0250,10.0,10.2,75.0,11.6,'11111222,11111222,11111222' 
LOOP,urn:ioos:station:wmo:lopl1:1,2011-11-01T23:53:00Z,28.8850,-90.0250,10.0,10.0,85.0,11.8,'11111222,11111222,11111222' 
LOOP,urn:ioos:station:wmo:lopl1:1,2011-11-02T00:08:00Z,28.8850,-90.0250,10.0,10.1,82.0,11.6,'11111222,11111222,11111222' 
LOOP,urn:ioos:station:wmo:lopl1:1,2011-11-02T00:23:00Z,28.8850,-90.0250,10.0,10.0,83.0,11.1,'11111222,11111222,11111222' 
LOOP,urn:ioos:station:wmo:lopl1:1,2011-11-02T00:38:00Z,28.8850,-90.0250,10.0,9.6,85.0,11.5,'11111222,11111222,11111222' 
LOOP,urn:ioos:station:wmo:lopl1:1,2011-11-02T00:53:00Z,28.8850,-90.0250,10.0,9.0,80.0,10.9,'11111222,11111222,11111222' 
LOOP,urn:ioos:station:wmo:lopl1:1,2011-11-02T01:08:00Z,28.8850,-90.0250,10.0,8.7,69.0,10.2,'11111222,11111222,11111222' 
LOOP,urn:ioos:station:wmo:lopl1:1,2011-11-02T01:23:00Z,28.8850,-90.0250,10.0,8.8,85.0,10.2,'11111222,11111222,11111222' 
LOOP,urn:ioos:station:wmo:lopl1:1,2011-11-02T01:38:00Z,28.8850,-90.0250,10.0,8.8,76.0,10.6,'11111222,11111222,11111222' 
LOOP,urn:ioos:station:wmo:lopl1:1,2011-11-02T01:53:00Z,28.8850,-90.0250,10.0,9.3,79.0,10.6,'11111222,11111222,11111222' 
LOOP,urn:ioos:station:wmo:lopl1:1,2011-11-02T02:08:00Z,28.8850,-90.0250,10.0,8.7,77.0,10.5,'11111222,11111222,11111222' 
LOOP,urn:ioos:station:wmo:lopl1:1,2011-11-02T02:23:00Z,28.8850,-90.0250,10.0,8.9,81.0,10.3,'11111222,11111222,11111222' 
LOOP,urn:ioos:station:wmo:lopl1:1,2011-11-02T02:38:00Z,28.8850,-90.0250,10.0,8.6,77.0,10.1,'11111222,11111222,11111222' 
LOOP,urn:ioos:station:wmo:lopl1:1,2011-11-02T02:53:00Z,28.8850,-90.0250,10.0,9.1,75.0,10.6,'11111222,11111222,11111222' 
LOOP,urn:ioos:station:wmo:lopl1:1,2011-11-02T03:08:00Z,28.8850,-90.0250,10.0,8.7,75.0,10.5,'11111222,11111222,11111222' 
LOOP,urn:ioos:station:wmo:lopl1:1,2011-11-02T03:23:00Z,28.8850,-90.0250,10.0,8.6,78.0,10.0,'11111222,11111222,11111222' 
LOOP,urn:ioos:station:wmo:lopl1:1,2011-11-02T03:38:00Z,28.8850,-90.0250,10.0,9.1,81.0,10.7,'11111222,11111222,11111222' 
LOOP,urn:ioos:station:wmo:lopl1:1,2011-11-02T03:53:00Z,28.8850,-90.0250,10.0,8.5,80.0,10.1,'11111222,11111222,11111222' 
LOOP,urn:ioos:station:wmo:lopl1:1,2011-11-02T04:08:00Z,28.8850,-90.0250,10.0,8.3,81.0,9.8,'11111222,11111222,11111222' 
LOOP,urn:ioos:station:wmo:lopl1:1,2011-11-02T04:23:00Z,28.8850,-90.0250,10.0,8.7,85.0,10.1,'11111222,11111222,11111222' 
LOOP,urn:ioos:station:wmo:lopl1:1,2011-11-02T04:38:00Z,28.8850,-90.0250,10.0,8.6,79.0,10.1,'11111222,11111222,11111222' 
LOOP,urn:ioos:station:wmo:lopl1:1,2011-11-02T04:53:00Z,28.8850,-90.0250,10.0,8.2,76.0,9.7,'11111222,11111222,11111222' 
LOOP,urn:ioos:station:wmo:lopl1:1,2011-11-02T05:08:00Z,28.8850,-90.0250,10.0,8.7,80.0,10.4,'11111222,11111222,11111222' 
LOOP,urn:ioos:station:wmo:lopl1:1,2011-11-02T05:23:00Z,28.8850,-90.0250,10.0,8.0,78.0,9.6,'11111222,11111222,11111222' 
LOOP,urn:ioos:station:wmo:lopl1:1,2011-11-02T05:38:00Z,28.8850,-90.0250,10.0,8.1,76.0,10.0,'11111222,11111222,11111222' 
LOOP,urn:ioos:station:wmo:lopl1:1,2011-11-02T05:53:00Z,28.8850,-90.0250,10.0,8.3,75.0,10.2,'11111222,11111222,11111222' 
LOOP,urn:ioos:station:wmo:lopl1:1,2011-11-02T06:08:00Z,28.8850,-90.0250,10.0,8.4,77.0,10.1,'11111222,11111222,11111222' 
LOOP,urn:ioos:station:wmo:lopl1:1,2011-11-02T06:23:00Z,28.8850,-90.0250,10.0,8.7,80.0,10.4,'11111222,11111222,11111222' 
LOOP,urn:ioos:station:wmo:lopl1:1,2011-11-02T06:38:00Z,28.8850,-90.0250,10.0,8.9,77.0,10.6,'11111222,11111222,11111222' 
LOOP,urn:ioos:station:wmo:lopl1:1,2011-11-02T06:53:00Z,28.8850,-90.0250,10.0,9.6,68.0,12.4,'11111222,11111222,11111222' 
LOOP,urn:ioos:station:wmo:lopl1:1,2011-11-02T07:08:00Z,28.8850,-90.0250,10.0,7.4,104.0,8.8,'11111222,11111222,11111222' 
LOOP,urn:ioos:station:wmo:lopl1:1,2011-11-02T07:23:00Z,28.8850,-90.0250,10.0,7.6,120.0,8.4,'11111222,11111222,11111222' 
LOOP,urn:ioos:station:wmo:lopl1:1,2011-11-02T07:38:00Z,28.8850,-90.0250,10.0,7.5,113.0,8.7,'11111222,11111222,11111222' 
LOOP,urn:ioos:station:wmo:lopl1:1,2011-11-02T07:53:00Z,28.8850,-90.0250,10.0,8.0,110.0,9.5,'11111222,11111222,11111222' 
LOOP,urn:ioos:station:wmo:lopl1:1,2011-11-02T08:08:00Z,28.8850,-90.0250,10.0,8.2,111.0,9.3,'11111222,11111222,11111222' 
LOOP,urn:ioos:station:wmo:lopl1:1,2011-11-02T08:23:00Z,28.8850,-90.0250,10.0,7.7,110.0,8.9,'11111222,11111222,11111222' 
LOOP,urn:ioos:station:wmo:lopl1:1,2011-11-02T08:38:00Z,28.8850,-90.0250,10.0,7.5,113.0,8.6,'11111222,11111222,11111222' 
LOOP,urn:ioos:station:wmo:lopl1:1,2011-11-02T08:53:00Z,28.8850,-90.0250,10.0,9.0,104.0,10.3,'11111222,11111222,11111222' 
LOOP,urn:ioos:station:wmo:lopl1:1,2011-11-02T09:08:00Z,28.8850,-90.0250,10.0,9.0,113.0,10.1,'11111222,11111222,11111222' 
LOOP,urn:ioos:station:wmo:lopl1:1,2011-11-02T09:23:00Z,28.8850,-90.0250,10.0,7.9,112.0,9.0,'11111222,11111222,11111222' 
LOOP,urn:ioos:station:wmo:lopl1:1,2011-11-02T09:38:00Z,28.8850,-90.0250,10.0,8.0,99.0,9.3,'11111222,11111222,11111222' 
LOOP,urn:ioos:station:wmo:lopl1:1,2011-11-02T09:58:00Z,28.8850,-90.0250,10.0,8.5,106.0,9.4,'11111222,11111222,11111222' 
LOOP,urn:ioos:station:wmo:lopl1:1,2011-11-02T10:13:00Z,28.8850,-90.0250,10.0,7.7,107.0,9.6,'11111222,11111222,11111222' 
LOOP,urn:ioos:station:wmo:lopl1:1,2011-11-02T10:28:00Z,28.8850,-90.0250,10.0,8.0,100.0,9.7,'11111222,11111222,11111222' 
LOOP,urn:ioos:station:wmo:lopl1:1,2011-11-02T10:43:00Z,28.8850,-90.0250,10.0,8.4,105.0,10.1,'11111222,11111222,11111222' 
LOOP,urn:ioos:station:wmo:lopl1:1,2011-11-02T10:58:00Z,28.8850,-90.0250,10.0,7.8,116.0,9.2,'11111222,11111222,11111222' 
LOOP,urn:ioos:station:wmo:lopl1:1,2011-11-02T11:13:00Z,28.8850,-90.0250,10.0,9.2,112.0,10.8,'11111222,11111222,11111222' 
LOOP,urn:ioos:station:wmo:lopl1:1,2011-11-02T11:28:00Z,28.8850,-90.0250,10.0,9.2,112.0,10.8,'11111222,11111222,11111222' 
LOOP,urn:ioos:station:wmo:lopl1:1,2011-11-02T11:43:00Z,28.8850,-90.0250,10.0,9.3,112.0,10.7,'11111222,11111222,11111222' 
LOOP,urn:ioos:station:wmo:lopl1:1,2011-11-02T11:58:00Z,28.8850,-90.0250,10.0,9.3,113.0,10.9,'11111222,11111222,11111222' 
LOOP,urn:ioos:station:wmo:lopl1:1,2011-11-02T12:13:00Z,28.8850,-90.0250,10.0,9.8,101.0,11.3,'11111222,11111222,11111222' 
LOOP,urn:ioos:station:wmo:lopl1:1,2011-11-02T12:28:00Z,28.8850,-90.0250,10.0,9.5,98.0,10.7,'11111222,11111222,11111222' 
LOOP,urn:ioos:station:wmo:lopl1:1,2011-11-02T12:43:00Z,28.8850,-90.0250,10.0,9.7,101.0,10.8,'11111222,11111222,11111222' 
LOOP,urn:ioos:station:wmo:lopl1:1,2011-11-02T12:58:00Z,28.8850,-90.0250,10.0,9.6,109.0,11.0,'11111222,11111222,11111222' 
LOOP,urn:ioos:station:wmo:lopl1:1,2011-11-02T13:13:00Z,28.8850,-90.0250,10.0,9.5,104.0,11.0,'11111222,11111222,11111222' 
LOOP,urn:ioos:station:wmo:lopl1:1,2011-11-02T13:28:00Z,28.8850,-90.0250,10.0,9.5,110.0,11.0,'11111222,11111222,11111222' 
LOOP,urn:ioos:station:wmo:lopl1:1,2011-11-02T13:43:00Z,28.8850,-90.0250,10.0,8.9,111.0,10.3,'11111222,11111222,11111222' 
LOOP,urn:ioos:station:wmo:lopl1:1,2011-11-02T13:58:00Z,28.8850,-90.0250,10.0,9.7,96.0,10.8,'11111222,11111222,11111222' 
LOOP,urn:ioos:station:wmo:lopl1:1,2011-11-02T14:13:00Z,28.8850,-90.0250,10.0,8.2,113.0,9.8,'11111222,11111222,11111222' 
LOOP,urn:ioos:station:wmo:lopl1:1,2011-11-02T14:28:00Z,28.8850,-90.0250,10.0,7.9,111.0,9.3,'11111222,11111222,11111222' 
LOOP,urn:ioos:station:wmo:lopl1:1,2011-11-02T14:43:00Z,28.8850,-90.0250,10.0,8.5,105.0,9.9,'11111222,11111222,11111222' 
LOOP,urn:ioos:station:wmo:lopl1:1,2011-11-02T14:58:00Z,28.8850,-90.0250,10.0,8.5,104.0,9.6,'11111222,11111222,11111222' 
LOOP,urn:ioos:station:wmo:lopl1:1,2011-11-02T15:13:00Z,28.8850,-90.0250,10.0,8.3,111.0,9.3,'11111222,11111222,11111222' 
LOOP,urn:ioos:station:wmo:lopl1:1,2011-11-02T15:28:00Z,28.8850,-90.0250,10.0,7.8,114.0,8.9,'11111222,11111222,11111222' 
LOOP,urn:ioos:station:wmo:lopl1:1,2011-11-02T15:43:00Z,28.8850,-90.0250,10.0,7.7,106.0,9.2,'11111222,11111222,11111222' 
LOOP,urn:ioos:station:wmo:lopl1:1,2011-11-02T15:58:00Z,28.8850,-90.0250,10.0,7.2,109.0,8.4,'11111222,11111222,11111222' 
LOOP,urn:ioos:station:wmo:lopl1:1,2011-11-02T16:13:00Z,28.8850,-90.0250,10.0,7.4,116.0,8.8,'11111222,11111222,11111222' 
LOOP,urn:ioos:station:wmo:lopl1:1,2011-11-02T16:28:00Z,28.8850,-90.0250,10.0,7.3,111.0,8.4,'11111222,11111222,11111222' 
LOOP,urn:ioos:station:wmo:lopl1:1,2011-11-02T16:43:00Z,28.8850,-90.0250,10.0,6.8,101.0,8.5,'11111222,11111222,11111222' 
LOOP,urn:ioos:station:wmo:lopl1:1,2011-11-02T16:58:00Z,28.8850,-90.0250,10.0,6.0,115.0,7.1,'11111222,11111222,11111222' 
LOOP,urn:ioos:station:wmo:lopl1:1,2011-11-02T17:13:00Z,28.8850,-90.0250,10.0,7.0,113.0,8.1,'11111222,11111222,11111222' 
LOOP,urn:ioos:station:wmo:lopl1:1,2011-11-02T17:28:00Z,28.8850,-90.0250,10.0,5.8,98.0,6.5,'11111222,11111222,11111222' 
LOOP,urn:ioos:station:wmo:lopl1:1,2011-11-02T17:43:00Z,28.8850,-90.0250,10.0,5.5,83.0,6.6,'11111222,11111222,11111222' 
LOOP,urn:ioos:station:wmo:lopl1:1,2011-11-02T17:58:00Z,28.8850,-90.0250,10.0,6.0,83.0,6.8,'11111222,11111222,11111222' 
LOOP,urn:ioos:station:wmo:lopl1:1,2011-11-02T18:13:00Z,28.8850,-90.0250,10.0,6.2,76.0,7.5,'11111222,11111222,11111222' 
LOOP,urn:ioos:station:wmo:lopl1:1,2011-11-02T18:28:00Z,28.8850,-90.0250,10.0,6.2,74.0,7.4,'11111222,11111222,11111222' 
LOOP,urn:ioos:station:wmo:lopl1:1,2011-11-02T18:43:00Z,28.8850,-90.0250,10.0,6.2,68.0,7.4,'11111222,11111222,11111222' 
LOOP,urn:ioos:station:wmo:lopl1:1,2011-11-02T18:58:00Z,28.8850,-90.0250,10.0,6.4,65.0,7.7,'11111222,11111222,11111222' 
LOOP,urn:ioos:station:wmo:lopl1:1,2011-11-02T19:13:00Z,28.8850,-90.0250,10.0,7.3,67.0,8.5,'11111222,11111222,11111222' 
LOOP,urn:ioos:station:wmo:lopl1:1,2011-11-02T19:28:00Z,28.8850,-90.0250,10.0,7.7,59.0,8.9,'11111222,11111222,11111222' 
LOOP,urn:ioos:station:wmo:lopl1:1,2011-11-02T19:43:00Z,28.8850,-90.0250,10.0,8.2,66.0,9.8,'11111222,11111222,11111222' 
LOOP,urn:ioos:station:wmo:lopl1:1,2011-11-02T19:58:00Z,28.8850,-90.0250,10.0,7.8,63.0,9.2,'11111222,11111222,11111222' 
LOOP,urn:ioos:station:wmo:lopl1:1,2011-11-02T20:13:00Z,28.8850,-90.0250,10.0,7.7,58.0,9.1,'11111222,11111222,11111222' 
LOOP,urn:ioos:station:wmo:lopl1:1,2011-11-02T20:28:00Z,28.8850,-90.0250,10.0,8.0,60.0,9.2,'11111222,11111222,11111222' 
LOOP,urn:ioos:station:wmo:lopl1:1,2011-11-02T20:43:00Z,28.8850,-90.0250,10.0,7.8,64.0,9.1,'11111222,11111222,11111222' 
LOOP,urn:ioos:station:wmo:lopl1:1,2011-11-02T21:03:00Z,28.8850,-90.0250,10.0,8.0,66.0,9.4,'11111222,11111222,11111222' 
LOOP,urn:ioos:station:wmo:lopl1:1,2011-11-02T21:18:00Z,28.8850,-90.0250,10.0,7.9,64.0,10.3,'11111222,11111222,11111222' 
LOOP,urn:ioos:station:wmo:lopl1:1,2011-11-02T21:33:00Z,28.8850,-90.0250,10.0,7.1,60.0,9.4,'11111222,11111222,11111222' 
LOOP,urn:ioos:station:wmo:lopl1:1,2011-11-02T21:48:00Z,28.8850,-90.0250,10.0,6.9,49.0,9.0,'11111222,11111222,11111222' 
LOOP,urn:ioos:station:wmo:lopl1:1,2011-11-02T22:03:00Z,28.8850,-90.0250,10.0,7.5,61.0,9.1,'11111222,11111222,11111222' 
LOOP,urn:ioos:station:wmo:lopl1:1,2011-11-02T22:18:00Z,28.8850,-90.0250,10.0,7.6,61.0,9.5,'11111222,11111222,11111222' 
LOOP,urn:ioos:station:wmo:lopl1:1,2011-11-02T22:33:00Z,28.8850,-90.0250,10.0,8.4,65.0,10.0,'11111222,11111222,11111222' 
LOOP,urn:ioos:station:wmo:lopl1:1,2011-11-02T22:48:00Z,28.8850,-90.0250,10.0,8.8,67.0,10.1,'11111222,11111222,11111222' 
LOOP,urn:ioos:station:wmo:lopl1:1,2011-11-02T23:03:00Z,28.8850,-90.0250,10.0,8.5,63.0,10.2,'11111222,11111222,11111222' 
LOOP,urn:ioos:station:wmo:lopl1:1,2011-11-02T23:18:00Z,28.8850,-90.0250,10.0,8.6,69.0,9.7,'11111222,11111222,11111222' 
LOOP,urn:ioos:station:wmo:lopl1:1,2011-11-02T23:33:00Z,28.8850,-90.0250,10.0,8.2,70.0,9.2,'11111222,11111222,11111222' 
LOOP,urn:ioos:station:wmo:lopl1:1,2011-11-02T23:48:00Z,28.8850,-90.0250,10.0,7.9,68.0,8.9,'11111222,11111222,11111222' 
LOOP,urn:ioos:station:wmo:lopl1:1,2011-11-03T00:03:00Z,28.8850,-90.0250,10.0,8.4,66.0,9.5,'11111222,11111222,11111222' 
LOOP,urn:ioos:station:wmo:lopl1:1,2011-11-03T00:18:00Z,28.8850,-90.0250,10.0,8.0,67.0,9.5,'11111222,11111222,11111222' 
LOOP,urn:ioos:station:wmo:lopl1:1,2011-11-03T00:33:00Z,28.8850,-90.0250,10.0,8.0,68.0,9.2,'11111222,11111222,11111222' 
LOOP,urn:ioos:station:wmo:lopl1:1,2011-11-03T00:48:00Z,28.8850,-90.0250,10.0,7.9,69.0,9.1,'11111222,11111222,11111222' 
LOOP,urn:ioos:station:wmo:lopl1:1,2011-11-03T01:03:00Z,28.8850,-90.0250,10.0,7.3,81.0,9.1,'11111222,11111222,11111222' 
LOOP,urn:ioos:station:wmo:lopl1:1,2011-11-03T01:18:00Z,28.8850,-90.0250,10.0,7.7,76.0,9.0,'11111222,11111222,11111222' 
LOOP,urn:ioos:station:wmo:lopl1:1,2011-11-03T01:33:00Z,28.8850,-90.0250,10.0,7.9,82.0,9.9,'11111222,11111222,11111222' 
LOOP,urn:ioos:station:wmo:lopl1:1,2011-11-03T01:48:00Z,28.8850,-90.0250,10.0,8.8,90.0,9.6,'11111222,11111222,11111222' 